Tracking 29511 objects as of 15-Sep-2024
HD Live streaming from Space Station
objects crossing your sky now

STARLINK-1636

Track STARLINK-1636 now!
10-day predictions
STARLINK-1636 is classified as:


NORAD ID: 46153
Int'l Code: 2020-057AN
Perigee: 552.9 km
Apogee: 555.5 km
Inclination: 53.1 °
Period: 95.6 minutes
Semi major axis: 6925 km
RCS: Unknown
Launch date: August 18, 2020
Source: United States (US)
Launch site: AIR FORCE EASTERN TEST RANGE (AFETR)
Your satellite tracking list
Your tracking list is empty




NASA's NSSDC Master Catalog

Two Line Element Set (TLE):
1 46153U 20057AN  24259.11865416  .00046883  00000-0  31413-2 0  9990
2 46153  53.0565 203.3357 0001884 111.7088 248.4102 15.06449292225524
Source of the keplerian elements: AFSPC